Location: Recife
(8.0585°S, 34.8848°W)
Time: 13:21:29
(UTC-03:00)

Transit 4A - Pass Details

Date: 20 April 2026
Orbit: 861 x 980 km, 66.8° (Epoch: 12 May)

Event Time Altitude Azimuth Distance (km) Brightness Sun altitude
Rises 12:24:03 0° 232° (SW) 3,448 10.9 64.4°
Reaches altitude 10° 12:27:37 10° 254° (WSW) 2,518 10.5 63.8°
Maximum altitude 12:30:48 15° 288° (WNW) 2,182 10.5 63.3°
Drops below altitude 10° 12:34:02 10° 322° (NW) 2,541 10.8 62.7°
Sets 12:37:42 0° 344° (NNW) 3,499 11.3 62.1°
